This is the latest recevied weather packets stored in our database for station/object WC4PEM-6. If no packets are shown the sender has not sent any weather packets the latest 10 day(s).
| Time | Temp. | Humidity | Pressure | Rain* | Wind** | Luminosity | Snow |
|---|---|---|---|---|---|---|---|
| 1777912508 | 26.67° C | 48% | 1016.4 hPa | 0 mm | - | - | - |
| 1777912208 | 26.67° C | 49% | 1016.5 hPa | 0 mm | - | - | - |
| 1777911908 | 26.67° C | 49% | 1016.6 hPa | 0 mm | - | - | - |
| 1777911608 | 26.67° C | 50% | 1016.5 hPa | 0 mm | - | - | - |
| 1777911308 | 26.11° C | 49% | 1016.6 hPa | 0 mm | - | - | - |
| 1777911008 | 26.11° C | 49% | 1016.7 hPa | 0 mm | - | - | - |
| 1777910708 | 26.11° C | 51% | 1016.8 hPa | 0 mm | - | - | - |
| 1777910414 | 26.11° C | 52% | 1016.8 hPa | 0 mm | - | - | - |
| 1777910408 | 26.11° C | 51% | 1016.8 hPa | 0 mm | - | - | - |
| 1777910108 | 26.11° C | 52% | 1016.8 hPa | 0 mm | - | - | - |
| 1777909808 | 25.56° C | 52% | 1016.7 hPa | 0 mm | - | - | - |
| 1777909742 | 25.56° C | 52% | 1017 hPa | 0 mm | - | - | - |
| 1777909508 | 25.56° C | 52% | 1017 hPa | 0 mm | - | - | - |
| 1777909208 | 25.56° C | 52% | 1017 hPa | 0 mm | - | - | - |
| 1777908908 | 25.56° C | 52% | 1016.9 hPa | 0 mm | - | - | - |
| 1777908608 | 25.56° C | 50% | 1016.8 hPa | 0 mm | - | - | - |
| 1777908308 | 25.56° C | 51% | 1016.8 hPa | 0 mm | - | - | - |
| 1777908008 | 25° C | 54% | 1016.8 hPa | 0 mm | - | - | - |
| 1777907894 | 25° C | 53% | 1016.9 hPa | 0 mm | - | - | - |
| 1777907708 | 25° C | 53% | 1016.9 hPa | 0 mm | - | - | - |
| 1777907408 | 25° C | 54% | 1017.1 hPa | 0 mm | - | - | - |
| 1777907108 | 25° C | 56% | 1017.1 hPa | 0 mm | - | - | - |
| 1777906808 | 25° C | 56% | 1016.9 hPa | 0 mm | - | - | - |
| 1777906508 | 25° C | 56% | 1016.8 hPa | 0 mm | - | - | - |
| 1777906208 | 24.44° C | 57% | 1017 hPa | 0 mm | - | - | - |
* Rain latest hour (hover to see other rain measurements)
** Current wind speed in m/s (hover to see current wind gust speed)